Lewistown, MT

3:57 PM MST on November 24, 2017 (GMT -0700)
Lewistown Municipal

Weather History for KLWT - July, 2013

Change the Weather History Date:

Friday, July 19, 2013

  Actual Average Record
Temperature  
Mean Temperature 69 °F 66 °F  
Max Temperature 87 °F 82 °F 99 °F (1960)
Min Temperature 51 °F 51 °F 35 °F (1897)
Degree Days  
Heating Degree Days 0 2  
Month to date heating degree days 10 55  
Since 1 June heating degree days 230 282  
Since 1 July heating degree days 10 55  
Cooling Degree Days 4 3  
Month to date cooling degree days 79 47  
Year to date cooling degree days 98 69  
Since 1 June cooling degree days 95 67  
Growing Degree Days 18 (Base 50)    
Moisture  
Dew Point 43 °F    
Average Humidity 46    
Maximum Humidity 77    
Minimum Humidity 15    
Precipitation  
Precipitation 0.00 in 0.06 in 0.83 in (1948)
Month to date precipitation 1.28 1.28  
Year to date precipitation 15.47 10.62  
Snow  
Snow 0.00 in - - ()
Snow Depth 0.00 in    
Sea Level Pressure  
Sea Level Pressure 30.00 in    
Wind  
Wind Speed 7 mph (East)    
Max Wind Speed 18 mph    
Max Gust Speed 24 mph    
Visibility 10 miles    
Events      
T = Trace of Precipitation, MM = Missing Value Source: NWS Daily Summary

Daily Weather History Graph

Daily Weather History Graph

Search for Another Location

Airport or City:

Trip Planner

Search our weather history database for the weather conditions in past years. The results will help you decide how hot, cold, wet, or windy it might be!

Date:

Astronomy

Jul. 19, 2013 Rise Set
Actual Time 5:42 AM MDT 9:05 PM MDT
Civil Twilight 5:04 AM MDT 9:42 PM MDT
Nautical Twilight 4:15 AM MDT 10:31 PM MDT
Astronomical Twilight 3:11 AM MDT 11:35 PM MDT
Moon 6:10 PM MDT (7/19) 2:27 AM MDT (7/19)
Length of Visible Light 16h 38m
Length of Day
15h 23m
Waxing Gibbous, 87% of the Moon is Illuminated
Jul 19
Waxing Gibbous
Jul 22
Full
Jul 29
Last Quarter
Aug 6
New
Aug 14
First Quarter

Hourly Weather History & Observations

Time (MDT) Temp. Dew Point Humidity Pressure Visibility Wind Dir Wind Speed Gust Speed Precip Events Conditions
12:54 AM 55.0 °F 46.9 °F 74% 30.08 in 10.0 mi SE 5.8 mph - N/A   Clear
1:54 AM 55.0 °F 46.0 °F 72% 30.09 in 10.0 mi SSE 3.5 mph - N/A   Clear
2:54 AM 54.0 °F 46.0 °F 75% 30.08 in 10.0 mi East 5.8 mph - N/A   Clear
3:54 AM 52.0 °F 45.0 °F 77% 30.07 in 10.0 mi SE 6.9 mph - N/A   Clear
4:54 AM 53.1 °F 45.0 °F 74% 30.06 in 10.0 mi SE 6.9 mph - N/A   Clear
5:54 AM 51.1 °F 45.0 °F 80% 30.06 in 10.0 mi SE 5.8 mph - N/A   Clear
6:54 AM 54.0 °F 46.0 °F 75% 30.05 in 10.0 mi SE 5.8 mph - N/A   Clear
7:54 AM 62.1 °F 48.9 °F 62% 30.04 in 10.0 mi SE 3.5 mph - N/A   Clear
8:54 AM 69.1 °F 48.9 °F 49% 30.02 in 10.0 mi East 4.6 mph - N/A   Clear
9:54 AM 75.0 °F 48.0 °F 38% 30.00 in 10.0 mi Variable 3.5 mph - N/A   Clear
10:54 AM 81.0 °F 41.0 °F 24% 29.99 in 10.0 mi West 10.4 mph 16.1 mph N/A   Clear
11:54 AM 82.9 °F 37.9 °F 20% 29.98 in 10.0 mi West 11.5 mph 16.1 mph N/A   Clear
12:54 PM 84.0 °F 42.1 °F 23% 29.96 in 10.0 mi West 15.0 mph 19.6 mph N/A   Clear
1:54 PM 84.0 °F 37.9 °F 19% 29.96 in 10.0 mi North 8.1 mph - N/A   Partly Cloudy
2:54 PM 86.0 °F 34.0 °F 16% 29.95 in 10.0 mi WNW 11.5 mph 18.4 mph N/A   Clear
3:54 PM 86.0 °F 39.0 °F 19% 29.95 in 10.0 mi NW 11.5 mph - N/A   Clear
4:54 PM 84.9 °F 34.0 °F 16% 29.94 in 10.0 mi NNW 9.2 mph 18.4 mph N/A   Clear
5:54 PM 84.0 °F 36.0 °F 18% 29.94 in 10.0 mi NNW 6.9 mph - N/A   Clear
6:54 PM 82.0 °F 37.9 °F 21% 29.93 in 10.0 mi North 11.5 mph - N/A   Clear
7:54 PM 79.0 °F 41.0 °F 26% 29.93 in 10.0 mi North 6.9 mph - N/A   Clear
8:54 PM 75.9 °F 41.0 °F 29% 29.93 in 10.0 mi NNE 4.6 mph - N/A   Clear
9:54 PM 69.1 °F 43.0 °F 39% 29.95 in 10.0 mi NE 3.5 mph - N/A   Clear
10:54 PM 60.1 °F 46.9 °F 62% 29.96 in 10.0 mi South 3.5 mph - N/A   Clear
11:54 PM 59.0 °F 45.0 °F 60% 29.97 in 10.0 mi South 3.5 mph - N/A   Clear